SL-8 R/B, 1589

Orbit data source: Space-Track

SL-8 R/B, 1589 is space debris in LEO originally from a launch on Sat, 18 Sep 1965 UTC launched from the Tyuratam Missile And Space Complex (TTMTR). Debris objects in space refer to the collection of defunct objects orbiting the Earth. Examples of debris include non-operational satellites, rocket bodies, and fragments generated from explosions, collisions, or faulty payload assembly.

Loading next visibility...
Identifier
1589, 1965-073F
Orbit
LEO
Last TLE update
13 hours ago
Origin
Manufacturer
Yuzhnoe
Mission
Spacecraft
Bus & Motor
S3, Unknown motor
Mass
1,434 kg wet, 1,434 kg dry
Launch date (UTC)
1965-09-18 (60 years ago)
Launch vehicle
Unknown
Launch site
Tyuratam Missile And Space Complex (TTMTR)
Object type
Payload
Rocket body
Debris
Shape & HBR
Cyl, 6.57 m
Radar Cross Section
14.646 m², Large (>1 m²)

Expand to show TLE details & history

TLE from 13 hours ago
0 SL-8 R/B
1 01589U 65073F   25128.69541446 -.00000082  00000-0  64999-4 0  9993
2 01589  56.0538  50.9286 0158435 209.6541 179.7574 12.33050476685814
Epoch: 2025-05-08T16:41Z
Definitive object data (Epoch: 2025-05-08T16:41:23.809Z)
Latitude
24.09634°
Longitude
-48.7481°
Altitude
1,662.682 km
Speed
6.989 km/s
True Right ascension
04h 33m 27s
True Declination
23° 58' 58"
Sunlit
Object was in daylight at TLE epoch
Visualization TLE readout
Latitude
-19.83901°
Longitude
126.42659°
Altitude
1,417.268 km
Speed
7.208 km/s
Apparent Right ascension
19h 00m 20s
Apparent Declination
-53° 44' 20"
Sunlit
Object is in full shadow
Visualization observer readout
Local Sidereal Time
13:27:12
Azimuth
138.452° SSE
Elevation
-27.668°
Doppler factor
1
Orbital elements
Apogee altitude
1,661.415 km
Perigee altitude
1,410.638 km
Semi-major axis
7,914.163 km
Eccentricity
0.0158435
Inclination
56.0538°
RAAN
50.9286°
Arg. of periapsis
209.6541°
True anomaly
179.76494°
Mean anomaly
179.7574°
Eccentric anomaly
179.76118°
Mean motion
3.08273 °/min
BSTAR
0.000064999
Orbital period
116.78 mins
Loading maneuver chart data...
Loading SW <> Apogee altitude chart data...
Loading historical data...
Loading historical data...
Loading historical data...
Loading historical data...
Loading historical data...
Loading historical data...
Loading historical data...

SL-8 R/B Visibility forecast

Observer location: undefined°, undefined°

Span
Click to sort rows by Start time (UTC) header in descending order
Start Az.
Max El. time (UTC)
Max El. Az.
Max El.
End time (UTC)
End Az.
12 mins2025-05-09 06:49:33.483Z291.006° WNW2025-05-09 06:55:33.483Z248.531° W21.071°2025-05-09 07:01:33.483Z201.885° SSW
16 mins2025-05-09 19:52:33.483Z184.236° SSW2025-05-09 19:59:33.483Z127.071° SE34.596°2025-05-09 20:08:33.483Z56.113° ENE
17 mins2025-05-09 21:53:33.483Z243.175° WSW2025-05-09 22:01:33.483Z312.347° NW41.914°2025-05-09 22:10:33.483Z41.858° NE
15 mins2025-05-09 23:58:33.483Z290.646° WNW2025-05-10 00:05:33.483Z342.59° N28.204°2025-05-10 00:13:33.483Z45.752° ENE
15 mins2025-05-10 02:03:33.483Z316.995° NNW2025-05-10 02:11:33.483Z21.617° NNE29.221°2025-05-10 02:18:33.483Z76.239° E
17 mins2025-05-10 04:06:33.483Z317.02° NNW2025-05-10 04:14:33.483Z28.754° NE43.864°2025-05-10 04:23:33.483Z126.775° SE
|